Temp
17 18 18 19 19 19 20 20 19 18 18 18 18 18 17 18 19 19 19 18 19 20
18 18 19 19 18 18 18 19 18 19 18 18 18 17 18 18 18 18 18 19 18 19
18 19 18 18 18 18 18 19 18 19 18 17 17 17 17 18 18 18 18 19 19 18
18 18 18 18 19 19 19 19 19 19 19 19 18 18 17 18 19 18 18 18 18 18
18 18 18 18 18 18 19 19 19 19 19 19 19 17 17 17 18 18 18 18 18 18
18 18 18 18 18 18 20 20 19 19 19 19 19 19 17 18 17 18 18 18 18 18
18 19 19 18 18 17 18 19 20 19 19 19 19 19 19 18 17 17 17 17 17 18
18 18 18 18 18 18 19 17 18 18 18 18 18 18 18 18 18 18 17 18 17 18
19 19 20 20 19 18 18 18 17 17 17 17 17 18 18 18 18 17 17 17 17 17
18 18 19 19 18 18 18 17 17 17 16 16 17 18 18 18 18 18 17 17 17 17
18 19 19 18 18 18 18 17 17 17 16 16 16 18 18 17 17 18 17 16 18 17
18 18 17 18 17 17 17 17 17 16 16 16 16 16 17 17 16 17 17 17 17 18
17 17 16 17 17 16 16 16 16 16 16 16 15 16 16 16 15 15 16 16 16 16
16 16 16 16 16 16 15 15 15 15 15 15 14 15 15 15 14 15 15 14 15 15
Height
1586 1589 1592 1593 1595 1595 1597 1598 1598 1598 1598 1599 1600 1601 1601 1602 1603 1604 1603 1603 1603 1605
1583 1586 1590 1592 1593 1594 1594 1595 1594 1594 1595 1596 1597 1597 1598 1600 1601 1601 1601 1602 1601 1601
1580 1583 1585 1587 1589 1591 1591 1590 1591 1591 1592 1593 1594 1594 1595 1597 1598 1598 1599 1600 1599 1598
1577 1580 1582 1584 1586 1587 1588 1588 1588 1588 1589 1590 1591 1592 1593 1593 1594 1595 1595 1596 1596 1596
1573 1575 1578 1579 1581 1583 1584 1585 1586 1586 1587 1587 1588 1589 1589 1590 1593 1592 1593 1592 1593 1593
1569 1572 1574 1576 1577 1578 1580 1582 1583 1583 1584 1585 1585 1585 1586 1587 1587 1589 1590 1590 1590 1590
1566 1568 1571 1573 1574 1575 1577 1577 1578 1579 1580 1581 1581 1582 1582 1583 1584 1584 1585 1585 1586 1586
1563 1565 1567 1569 1571 1571 1572 1574 1574 1575 1576 1577 1578 1580 1580 1579 1580 1580 1581 1581 1580 1581
1557 1560 1562 1563 1566 1568 1568 1569 1570 1571 1572 1572 1574 1575 1576 1576 1576 1576 1576 1577 1577 1577
1553 1555 1556 1557 1560 1559 1562 1564 1564 1566 1568 1568 1568 1568 1571 1572 1572 1571 1572 1572 1573 1573
1548 1548 1549 1551 1553 1553 1553 1554 1557 1558 1562 1563 1563 1564 1565 1566 1567 1567 1567 1567 1568 1569
1542 1542 1545 1545 1545 1545 1545 1547 1547 1549 1548 1555 1558 1558 1560 1561 1561 1562 1562 1563 1563 1563
1536 1537 1538 1537 1537 1537 1538 1539 1541 1544 1545 1547 1549 1553 1554 1554 1555 1556 1557 1558 1560 1559
1534 1535 1534 1534 1532 1534 1535 1536 1536 1538 1538 1540 1542 1544 1548 1548 1547 1548 1549 1552 1554 1555
Wind_Speed
17 12 11 12 11 11 9 9 10 10 10 9 10 9 9 7 7 8 7 8 10 7
20 17 13 12 13 11 12 10 12 12 12 12 11 12 10 8 11 10 9 8 9 10
20 19 17 16 14 12 13 13 11 13 13 12 13 12 14 10 11 11 11 10 11 10
18 18 17 17 15 13 13 14 15 13 12 13 13 13 13 14 13 12 12 11 11 11
19 19 18 19 18 17 18 16 14 13 13 14 15 14 16 14 12 12 12 11 12 12
19 19 19 18 18 19 20 19 16 17 16 14 14 16 13 16 15 13 13 13 12 12
18 18 17 17 17 17 18 21 20 19 19 17 15 14 15 15 15 14 14 14 14 13
17 19 18 17 17 18 18 19 21 21 21 20 17 14 14 14 16 16 15 15 15 13
23 24 25 25 25 22 23 21 20 19 19 19 17 19 17 16 15 14 15 14 14 14
28 26 23 25 24 26 28 25 22 22 19 19 19 20 18 17 16 15 13 15 16 15
19 19 22 22 26 24 24 28 34 26 22 21 20 21 21 21 22 19 16 15 17 14
11 12 16 21 22 23 24 27 27 31 30 24 23 21 21 22 27 26 20 18 17 15
9 10 12 15 18 19 22 22 23 24 30 28 25 20 20 21 20 21 18 11 9 8
7 8 11 11 10 10 10 12 15 19 24 24 23 15 11 14 18 24 32 24 18 15
Wind_Direction
222 214 224 239 218 239 236 240 244 242 245 250 243 249 252 259 253 260 264 261 252 260
221 220 221 228 238 245 244 244 255 254 257 254 247 249 244 260 262 256 264 261 267 266
217 231 235 241 240 237 240 265 263 270 260 256 255 255 248 255 266 257 253 266 264 258
220 225 232 234 243 251 258 270 276 272 263 262 261 255 251 254 258 257 257 254 252 255
221 223 229 238 242 247 258 266 271 257 266 270 267 255 255 254 248 260 258 254 256 256
228 230 234 238 246 251 253 258 260 257 261 271 271 258 258 256 255 249 251 251 249 255
232 233 237 244 246 246 252 257 258 255 258 266 270 266 265 257 252 249 250 256 258 257
238 237 238 246 251 259 257 253 254 253 253 257 262 265 265 259 255 260 257 257 263 258
261 258 260 264 272 264 265 262 256 250 250 255 253 250 258 260 259 260 264 259 254 246
258 258 265 266 263 261 260 259 258 260 254 254 251 252 255 257 258 261 263 266 266 255
256 255 259 265 267 267 263 260 255 254 251 254 246 253 255 259 259 254 262 259 256 256
234 248 253 259 264 265 260 260 248 253 251 257 256 256 260 265 257 252 250 262 253 244
264 271 275 280 268 263 265 255 247 246 242 243 245 247 255 260 251 232 227 235 237 226
251 277 280 277 274 262 243 234 236 242 240 240 222 234 236 264 251 247 237 241 240 242